Regional Weather Roundup
Issued by NWS Newport/Morehead, NC

Current Version | Previous Version | Graphics & Text | Print | Product List | Glossary Off
Versions: 1 2 3 4 5 6 7 8 9 10 11 12 13 14 15 16 17 18 19 20 21 22 23 24 25 26 27 28 29 30 31 32 33 34 35 36 37 38 39 40 41 42 43 44 45 46 47 48 49 50

000
ASUS42 KMHX 132110
RWRMHX
WEATHER ROUNDUP FOR EASTERN NORTH CAROLINA
NATIONAL WEATHER SERVICE NEWPORT/MOREHEAD CITY NC
500 PM EDT SUN JUL 13 2014

NOTE: "FAIR" INDICATES FEW OR NO CLOUDS BELOW 12,000 FEET
WITH NO SIGNIFICANT WEATHER AND/OR OBSTRUCTIONS TO VISIBILITY

NCZ015>017-031-032-045>047-102-103-132200-
NORTH COAST

CITY           SKY/WX    TMP DP  RH WIND       PRES   REMARKS
EDENTON        MOSUNNY   87  71  58 S10       30.05F
ELIZABETH CITY SUNNY     86  72  62 SE9       30.05F
KITTY HAWK     CLEAR     85  73  67 S8        30.06S
MANTEO         NOT AVBL

$$

NCZ045>047-081-094-103-104-132200-
CENTRAL COAST

CITY           SKY/WX    TMP DP  RH WIND       PRES   REMARKS
FRISCO         MOSUNNY   83  71  67 S9        30.10F
SWANQUARTER      N/A     86 N/A N/A SE5G16    30.03F

$$

NCZ095-097-098-100-101-132200-
SOUTHERN COAST

CITY           SKY/WX    TMP DP  RH WIND       PRES   REMARKS
BEAUFORT       PTSUNNY   84  74  71 S13       30.09F
CEDAR ISLAND     N/A     86 N/A N/A S9G17     30.12F
JACKSONVILLE   MOSUNNY   85  73  67 S13       30.07F
NEWPORT        NOT AVBL
PINEY ISLAND   MOCLDY    88  72  58 S14       30.08F
WILMINGTON     MOSUNNY   87  72  60 S10       30.07F


$$

NCZ011>013-027>030-043-044-078>080-089-090>093-098-132200-
COASTAL PLAIN

CITY           SKY/WX    TMP DP  RH WIND       PRES   REMARKS
AHOSKIE        SUNNY     87  68  52 S8        30.04F
CLINTON        SUNNY     90  73  56 S5        30.06F
ELIZABETHTOWN  SUNNY     90  69  49 SW5       30.06F
GOLDSBORO      MOSUNNY   89  74  61 SE6       30.03F
GREENVILLE     PTSUNNY   88  70  55 SW10      30.07F
HAVELOCK       MOSUNNY   84  71  65 S12G20    30.09F
KENANSVILLE    SUNNY     89  69  51 SW6       30.06F
KINSTON        MOSUNNY   88  70  55 S7        30.07F
NEW BERN       MOSUNNY   89  72  56 S14       30.08F
RICHLANDS      MOSUNNY   90  72  55 S13       30.07F
ROANOKE RAPIDS NOT AVBL
ROCKY MOUNT    SUNNY     90  67  46 S8        30.05F
WASHINGTON     SUNNY     87  69  54 S7        30.06F
WHITEVILLE     PTSUNNY   87  73  62 S7        30.06F

$$

AMZ130-135-150-152-154-156-158-170-250-252-270-ANZ085-086-088-633-658-670-132200-
MARINE OBSERVATIONS

STATION/POSITION TIME  TEMP    WIND        PRES    WAVE   SWELL
                       AIR SEA DIR/SP/G            HT/PER HT/PER
                 (UTC) (F)     (DEG/KT/KT) (MB)    (FT/S) (FT/S)
CHESAPEAKE LIGHT NOT AVBL
BUOY 44014       2100   77 78  170/ 12/ 14 1017.9    2/ 7   2/ 7
DUCK             2100   78 74  140/ 17/ 19 1017.0
2E DUCK          2100                        N/A     2/ 3
OREGON INLET     2100   82 80  170/ 12/ 15 1018.5
BUOY 44095       2100      77                N/A     2/ 7
HATTERAS CG      2100   81 82  170/  7/ 10 1019.5
DIAMOND BUOY     2100          VRB  8/  8  1019.3    2/ 7   2/ 7
17S OCRACOKE INL NOT AVBL
CAPE LOOKOUT     2000   81     190/  9/ 14 1019.5
BEAUFORT LAB     2100   82 85  200/ 12/ 14 1018.7
30 SE NEW RIVER  2100   82 83  200/ 12/ 14 1019.6    2/ 6   2/ 6
5 SE WRIGHTSVILL 2000   78 83  200/ 12/ 14 1020.2
FRYING PAN BUOY  NOT AVBL
BUOY 41001       NOT AVBL
BUOY 41002       2043   82 88  160/  4/  6 1021.0    2/ 8   2/ 8
BUOY 41004       2100   79 82  180/ 10/ 14 1018.6    2/ 8   2/ 8

$$



USA.gov is the U.S. government's official web portal to all federal, state and local government web resources and services.